Meteo Giornale » Osservazioni meteo Russia » Vladivostok
ore: 18:00 - Osservazioni Meteo Vladivostok
Lat. 43° 7' N Lon. 131° 56' E Alt. 184 metri s.l.m.
21 °C
Pioggia
Temp. 24 Ore
17 °C
23 °C
Nord/NOvest
14.4 Km/h
Dew point 19 °C
Umidità 88 %
Visibilità 10 Km
Il sole sorge alle ore 06:36
Il sole tramonta alle ore 19:48
| Data e Ora | Cielo e Fenomeni | T °C | DP °C | Um. % | Pres. hPa | Vis. km | Vento km/h | |
|---|---|---|---|---|---|---|---|---|
| Oggi h: 18:00 | Pioggia | 21 | 19 | 88 | 1014 | 10 | N/NO 14.4 | |
| Oggi h: 17:30 | Pioggia | 21 | 19 | 88 | 1014 | 10 | NO 10.8 | |
| Oggi h: 17:00 | Nuvoloso | 22 | 19 | 83 | 1014 | 10 | O/NO 10.8 | |
| Oggi h: 16:30 | Nuvoloso | 23 | 19 | 78 | 1014 | 10 | NO 14.4 | |
| Oggi h: 16:00 | Nuvoloso | 23 | 19 | 78 | 1014 | 10 | NO 10.8 | |
| Oggi h: 15:30 | Molto Nuvoloso | 22 | 19 | 83 | 1014 | 10 | NO 10.8 | |
| Oggi h: 15:00 | Molto Nuvoloso | 22 | 18 | 78 | 1014 | 10 | N 3.6 | |
| Oggi h: 14:30 | Nuvoloso | 23 | 18 | 73 | 1014 | 10 | N 7.2 | |
| Oggi h: 14:00 | Nuvoloso | 23 | 18 | 73 | 1014 | 10 | N 7.2 | |
| Oggi h: 13:30 | Nuvoloso | 22 | 18 | 78 | 1015 | 10 | N 3.6 | |
| Oggi h: 13:00 | Nuvoloso | 21 | 18 | 82 | 1015 | 10 | N 3.6 | |
| Oggi h: 12:30 | Molto Nuvoloso | 21 | 19 | 88 | 1015 | 10 | N 3.6 | |
| Oggi h: 12:00 | Pioggia | 20 | 18 | 88 | 1015 | 10 | N 3.6 | |
| Oggi h: 11:30 | Pioggia | 20 | 18 | 88 | 1016 | 10 | N 3.6 | |
| Oggi h: 11:00 | Pioggia | 19 | 18 | 93 | 1016 | 10 | N 7.2 | |
| Oggi h: 10:30 | Pioggia | 18 | 18 | 100 | 1016 | 10 | N 0 | |
| Oggi h: 10:00 | Pioggia | 18 | 18 | 100 | 1016 | 10 | N 3.6 | |
| Oggi h: 09:30 | Pioggia | 18 | 18 | 100 | 1016 | 10 | N 7.2 | |
| Oggi h: 09:00 | Pioggia | 17 | 17 | 100 | 1016 | 9 | N 7.2 | |
| Oggi h: 08:30 | Pioggia | 17 | 17 | 100 | 1017 | 7 | N 7.2 | |
| Oggi h: 08:00 | Pioggia | 17 | 17 | 100 | 1017 | 6 | N 7.2 | |
| Oggi h: 07:30 | Pioggia | 18 | 17 | 93 | 1017 | 9 | N 0 | |
| Oggi h: 07:00 | Pioggia | 18 | 18 | 100 | 1016 | 9 | N 0 | |
| Oggi h: 06:30 | Pioggia | 18 | 18 | 100 | 1016 | 10 | N 3.6 | |
| Oggi h: 06:00 | Pioggia | 18 | 17 | 93 | 1016 | 10 | N 0 | |
| Oggi h: 05:30 | Pioggia | 18 | 17 | 93 | 1016 | 7 | N 0 | |
| Oggi h: 05:00 | Nuvoloso | 18 | 17 | 93 | 1016 | 10 | N 7.2 | |
| Oggi h: 04:30 | Pioggia | 18 | 17 | 93 | 1016 | 10 | N 7.2 | |
| Oggi h: 04:00 | Pioggia | 18 | 18 | 100 | 1017 | 10 | N 0 | |
| Oggi h: 03:30 | Sereno | 18 | 18 | 100 | 1016 | 10 | N 0 | |
| Oggi h: 03:00 | Sereno | 18 | 18 | 100 | 1016 | 10 | N 7.2 | |
| Oggi h: 02:30 | Sereno | 18 | 18 | 100 | 1016 | 10 | N 0 | |
| Oggi h: 02:00 | Sereno | 18 | 18 | 100 | 1016 | 10 | N 0 | |
| Oggi h: 01:30 | Sereno | 18 | 18 | 100 | 1016 | 10 | N 3.6 | |
| Oggi h: 01:00 | Sereno | 19 | 18 | 93 | 1016 | 10 | N 0 | |
| Oggi h: 00:30 | Sereno | 19 | 18 | 93 | 1016 | 10 | N 0 | |
| Oggi h: 00:00 | Sereno | 19 | 18 | 93 | 1016 | 10 | N 3.6 | |
| Ieri h: 23:30 | Sereno | 19 | 18 | 93 | 1016 | 10 | N 3.6 | |
| Ieri h: 23:00 | Sereno | 19 | 18 | 93 | 1016 | 10 | N 3.6 | |
| Ieri h: 22:30 | Sereno | 19 | 18 | 93 | 1016 | 10 | E 10.8 | |
| Ieri h: 22:00 | Sereno | 19 | 19 | 100 | 1016 | 10 | N 7.2 | |
| Ieri h: 21:30 | Poco Nuvoloso | 19 | 18 | 93 | 1016 | 10 | N 7.2 | |
| Ieri h: 21:00 | Poco Nuvoloso | 20 | 18 | 88 | 1016 | 10 | N 7.2 | |
| Ieri h: 20:30 | Poco Nuvoloso | 20 | 18 | 88 | 1016 | 10 | N 3.6 | |
| Ieri h: 20:00 | Nuvoloso | 21 | 19 | 88 | 1015 | 10 | N 3.6 | |
| Ieri h: 19:30 | Nuvoloso | 21 | 19 | 88 | 1015 | 10 | N 3.6 | |
| Ieri h: 19:00 | Nuvoloso | 22 | 18 | 78 | 1015 | 10 | SO 10.8 | |



